,,Stat6,,Stat2,,Stat8,,Stat9,,Stat10,,Wind1,,Wind1,
time,status,PA1M_AVG,status,PR1M_SUM,status,RH1M_AVG,status,SR1M_AVG,status,TA1M_AVG,status,W1dAve1m,status,W1sAve1m,
2005-11-08, 00:00:00,VALID,919.429,VALID,0,VALID,100,VALID,0,VALID,19.2787,VALID,169,VALID,0.220655,
2005-11-08, 00:01:00,VALID,919.449,VALID,0,VALID,100,VALID,-0.0169808,VALID,19.2884,VALID,169,VALID,0.369978,
2005-11-08, 00:02:00,VALID,919.446,VALID,0,VALID,100,VALID,0,VALID,19.3507,VALID,168,VALID,0.34375,
2005-11-08, 00:03:00,VALID,919.463,VALID,0,VALID,100,VALID,-0.0169808,VALID,19.3664,VALID,168,VALID,0.346168,
2005-11-08, 00:04:00,VALID,919.469,VALID,0,VALID,100,VALID,0.0849042,VALID,19.3714,VALID,164,VALID,0.454268,
2005-11-08, 00:05:00,VALID,919.487,VALID,0,VALID,100,VALID,0.0849042,VALID,19.3717,VALID,77,VALID,0.463118,
2005-11-08, 00:06:00,VALID,919.501,VALID,0,VALID,100,VALID,0.0849042,VALID,19.3615,VALID,77,VALID,0.658333,
2005-11-08, 00:07:00,VALID,919.506,VALID,0,VALID,100,VALID,0.0849042,VALID,19.3582,VALID,77,VALID,0.609553,
2005-11-08, 00:08:00,VALID,919.498,VALID,0,VALID,100,VALID,0.0849042,VALID,19.3518,VALID,77,VALID,0.263715,
2005-11-08, 00:09:00,VALID,919.516,VALID,0,VALID,100,VALID,0.0679233,VALID,19.3232,VALID,77,VALID,0.246484,
2005-11-08, 00:10:00,VALID,919.498,VALID,0,VALID,100,VALID,0.0849042,VALID,19.3063,VALID,77,VALID,0.237827,
2005-11-08, 00:11:00,VALID,919.498,VALID,0,VALID,100,VALID,0.0849042,VALID,19.3036,VALID,77,VALID,0.17721,
2005-11-08, 00:12:00,VALID,919.492,VALID,0,VALID,100,VALID,0.0509425,VALID,19.2936,VALID,84,VALID,0.590511,
2005-11-08, 00:13:00,VALID,919.487,VALID,0,VALID,100,VALID,0.0679233,VALID,19.2971,VALID,103,VALID,0.64184,
2005-11-08, 00:14:00,VALID,919.489,VALID,0,VALID,100,VALID,0.0679233,VALID,19.3135,VALID,103,VALID,0.547805,
2005-11-08, 00:15:00,VALID,919.466,VALID,0,VALID,100,VALID,0.0169808,VALID,19.3065,VALID,119,VALID,0.580305,
2005-11-08, 00:16:00,VALID,919.437,VALID,0,VALID,100,VALID,0.0849042,VALID,19.3202,VALID,124,VALID,0.419922,
2005-11-08, 00:17:00,VALID,919.418,VALID,0,VALID,100,VALID,0.0339617,VALID,19.3167,VALID,117,VALID,0.361235,
2005-11-08, 00:18:00,VALID,919.391,VALID,0,VALID,100,VALID,0.0169808,VALID,19.3366,VALID,105,VALID,0.402521,
2005-11-08, 00:19:00,VALID,919.349,VALID,0,VALID,100,VALID,-0.0339617,VALID,19.341,VALID,105,VALID,0.0913881,
2005-11-08, 00:20:00,VALID,919.323,VALID,0,VALID,100,VALID,-0.101885,VALID,19.3443,VALID,112,VALID,0.358487,
2005-11-08, 00:21:00,VALID,919.295,VALID,0,VALID,100,VALID,-0.0849042,VALID,19.3572,VALID,136,VALID,0.752344,
2005-11-08, 00:22:00,VALID,919.258,VALID,0,VALID,100,VALID,-0.0509425,VALID,19.3532,VALID,136,VALID,0.875391,
2005-11-08, 00:23:00,VALID,919.237,VALID,0,VALID,100,VALID,-0.101885,VALID,19.3667,VALID,144,VALID,0.74673,
2005-11-08, 00:24:00,VALID,919.22,VALID,0,VALID,100,VALID,-0.0509425,VALID,19.3664,VALID,141,VALID,0.808771,
2005-11-08, 00:25:00,VALID,919.205,VALID,0,VALID,100,VALID,-0.0509425,VALID,19.3694,VALID,140,VALID,0.655878,
2005-11-08, 00:26:00,VALID,919.189,VALID,0,VALID,100,VALID,-0.0169808,VALID,19.3763,VALID,148,VALID,0.750545,
2005-11-08, 00:27:00,VALID,919.182,VALID,0,VALID,100,VALID,0,VALID,19.3696,VALID,149,VALID,0.539253,
2005-11-08, 00:28:00,VALID,919.186,VALID,0,VALID,100,VALID,-0.0339617,VALID,19.3696,VALID,135,VALID,0.479106,
2005-11-08, 00:29:00,VALID,919.188,VALID,0,VALID,100,VALID,-0.0169808,VALID,19.3532,VALID,97,VALID,0.493641,
2005-11-08, 00:30:00,VALID,919.187,VALID,0,VALID,100,VALID,0,VALID,19.3468,VALID,96,VALID,0.435243,
2005-11-08, 00:31:00,VALID,919.204,VALID,0,VALID,100,VALID,0,VALID,19.3431,VALID,96,VALID,0.455487,
2005-11-08, 00:32:00,VALID,919.205,VALID,0,VALID,100,VALID,0,VALID,19.3503,VALID,96,VALID,0.431463,
2005-11-08, 00:33:00,VALID,919.21,VALID,0,VALID,100,VALID,0,VALID,19.3565,VALID,96,VALID,0.423573,
2005-11-08, 00:34:00,VALID,919.211,VALID,0,VALID,100,VALID,0,VALID,19.3595,VALID,96,VALID,0.133575,
2005-11-08, 00:35:00,VALID,919.195,VALID,0,VALID,100,VALID,-0.0169808,VALID,19.3557,VALID,96,VALID,0.112537,
2005-11-08, 00:36:00,VALID,919.176,VALID,0,VALID,100,VALID,-0.0169808,VALID,19.3587,VALID,96,VALID,0.386814,
2005-11-08, 00:37:00,VALID,919.155,VALID,0,VALID,100,VALID,-0.0339617,VALID,19.3957,VALID,96,VALID,0.0366443,
2005-11-08, 00:38:00,VALID,919.102,VALID,0,VALID,100,VALID,-0.0339617,VALID,19.4049,VALID,96,VALID,0.0582217,
2005-11-08, 00:39:00,VALID,919.07,VALID,0,VALID,100,VALID,-0.0169808,VALID,19.4248,VALID,96,VALID,0.0173399,
2005-11-08, 00:40:00,VALID,919.024,VALID,0,VALID,100,VALID,-0.0679233,VALID,19.4345,VALID,96,VALID,0,
2005-11-08, 00:41:00,VALID,918.98,VALID,0,VALID,100,VALID,-0.0169808,VALID,19.4368,VALID,96,VALID,0,
2005-11-08, 00:42:00,VALID,918.949,VALID,0,VALID,100,VALID,-0.0509425,VALID,19.4561,VALID,96,VALID,0,
2005-11-08, 00:43:00,VALID,918.912,VALID,0,VALID,100,VALID,0,VALID,19.4887,VALID,96,VALID,0.126402,
2005-11-08, 00:44:00,VALID,918.876,VALID,0,VALID,100,VALID,-0.0339617,VALID,19.4755,VALID,96,VALID,0.219512,
2005-11-08, 00:45:00,VALID,918.849,VALID,0,VALID,100,VALID,-0.0339617,VALID,19.4894,VALID,96,VALID,0.114347,
2005-11-08, 00:46:00,VALID,918.831,VALID,0,VALID,100,VALID,-0.0339617,VALID,19.486,VALID,96,VALID,0.119792,
2005-11-08, 00:47:00,VALID,918.815,VALID,0,VALID,100,VALID,-0.0169808,VALID,19.5083,VALID,96,VALID,0.0290698,
2005-11-08, 00:48:00,VALID,918.803,VALID,0,VALID,100,VALID,0,VALID,19.5277,VALID,45,VALID,0.352257,
2005-11-08, 00:49:00,VALID,918.79,VALID,0,VALID,100,VALID,-0.0169808,VALID,19.5148,VALID,357,VALID,0.086128,
2005-11-08, 00:50:00,VALID,918.782,VALID,0,VALID,100,VALID,-0.0169808,VALID,19.5377,VALID,357,VALID,0,
2005-11-08, 00:51:00,VALID,918.776,VALID,0,VALID,100,VALID,-0.0169808,VALID,19.5374,VALID,357,VALID,0,
2005-11-08, 00:52:00,VALID,918.762,VALID,0,VALID,100,VALID,-0.0339617,VALID,19.5339,VALID,357,VALID,0,
2005-11-08, 00:53:00,VALID,918.74,VALID,0,VALID,100,VALID,-0.0679233,VALID,19.5603,VALID,357,VALID,0,
2005-11-08, 00:54:00,VALID,918.738,VALID,0,VALID,100,VALID,0,VALID,19.5533,VALID,357,VALID,0.191939,
2005-11-08, 00:55:00,VALID,918.72,VALID,0,VALID,100,VALID,-0.0169808,VALID,19.5565,VALID,357,VALID,0.274009,
2005-11-08, 00:56:00,VALID,918.686,VALID,0,VALID,100,VALID,0,VALID,19.5503,VALID,357,VALID,0.0563616,
2005-11-08, 00:57:00,VALID,918.665,VALID,0,VALID,100,VALID,-0.0169808,VALID,19.5767,VALID,357,VALID,0,
2005-11-08, 00:58:00,VALID,918.65,VALID,0,VALID,100,VALID,-0.0509425,VALID,19.5797,VALID,357,VALID,0,
2005-11-08, 00:59:00,VALID,918.637,VALID,0,VALID,100,VALID,-0.0169808,VALID,19.5926,VALID,357,VALID,0.106399,
2005-11-08, 01:00:00,VALID,918.62,VALID,0,VALID,100,VALID,-0.0509425,VALID,19.5859,VALID,357,VALID,0.0799851,
2005-11-08, 01:01:00,VALID,918.602,VALID,0,VALID,100,VALID,-0.0509425,VALID,19.5739,VALID,357,VALID,0.00111607,
2005-11-08, 01:02:00,VALID,918.575,VALID,0,VALID,100,VALID,-0.0679233,VALID,19.5802,VALID,357,VALID,0,
2005-11-08, 01:03:00,VALID,918.57,VALID,0,VALID,100,VALID,-0.0679233,VALID,19.5866,VALID,357,VALID,0,
2005-11-08, 01:04:00,VALID,918.572,VALID,0,VALID,100,VALID,0.0169808,VALID,19.5822,VALID,357,VALID,0,
2005-11-08, 01:05:00,VALID,918.578,VALID,0,VALID,100,VALID,-0.0169808,VALID,19.5951,VALID,357,VALID,0,
2005-11-08, 01:06:00,VALID,918.565,VALID,0,VALID,100,VALID,-0.0169808,VALID,19.602,VALID,357,VALID,0,
2005-11-08, 01:07:00,VALID,918.561,VALID,0,VALID,100,VALID,-0.0339617,VALID,19.6082,VALID,357,VALID,0,
2005-11-08, 01:08:00,VALID,918.536,VALID,0,VALID,100,VALID,0,VALID,19.6179,VALID,357,VALID,0,
2005-11-08, 01:09:00,VALID,918.511,VALID,0,VALID,100,VALID,-0.0169808,VALID,19.6112,VALID,357,VALID,0,
2005-11-08, 01:10:00,VALID,918.497,VALID,0,VALID,100,VALID,-0.0169808,VALID,19.6217,VALID,357,VALID,0.00571646,
2005-11-08, 01:11:00,VALID,918.482,VALID,0,VALID,100,VALID,-0.0169808,VALID,19.6018,VALID,357,VALID,0,
2005-11-08, 01:12:00,VALID,918.465,VALID,0,VALID,100,VALID,0,VALID,19.6115,VALID,357,VALID,0,
2005-11-08, 01:13:00,VALID,918.459,VALID,0,VALID,100,VALID,0,VALID,19.5951,VALID,357,VALID,0,
2005-11-08, 01:14:00,VALID,918.453,VALID,0,VALID,100,VALID,-0.0169808,VALID,19.5951,VALID,357,VALID,0.0275298,
2005-11-08, 01:15:00,VALID,918.453,VALID,0,VALID,100,VALID,0,VALID,19.5918,VALID,357,VALID,0.145647,
2005-11-08, 01:16:00,VALID,918.455,VALID,0,VALID,100,VALID,-0.0169808,VALID,19.5822,VALID,357,VALID,0.292188,
2005-11-08, 01:17:00,VALID,918.44,VALID,0,VALID,100,VALID,-0.0169808,VALID,19.602,VALID,357,VALID,0.309956,
2005-11-08, 01:18:00,VALID,918.435,VALID,0,VALID,100,VALID,-0.0169808,VALID,19.5856,VALID,357,VALID,0.317187,
2005-11-08, 01:19:00,VALID,918.417,VALID,0,VALID,100,VALID,0,VALID,19.572,VALID,357,VALID,0.316778,
2005-11-08, 01:20:00,VALID,918.396,VALID,0,VALID,100,VALID,0,VALID,19.5759,VALID,357,VALID,0.303571,
2005-11-08, 01:21:00,VALID,918.377,VALID,0,VALID,100,VALID,0,VALID,19.5593,VALID,357,VALID,0.105646,
2005-11-08, 01:22:00,VALID,918.365,VALID,0,VALID,100,VALID,0,VALID,19.5595,VALID,357,VALID,0.334985,
2005-11-08, 01:23:00,VALID,918.36,VALID,0,VALID,100,VALID,0.0169808,VALID,19.5593,VALID,68,VALID,0.469295,
2005-11-08, 01:24:00,VALID,918.35,VALID,0,VALID,100,VALID,0,VALID,19.5598,VALID,141,VALID,0.753906,
2005-11-08, 01:25:00,VALID,918.357,VALID,0,VALID,100,VALID,0,VALID,19.5727,VALID,151,VALID,0.847834,
2005-11-08, 01:26:00,VALID,918.363,VALID,0,VALID,100,VALID,0.0169808,VALID,19.5595,VALID,152,VALID,0.795987,
2005-11-08, 01:27:00,VALID,918.364,VALID,0,VALID,100,VALID,0,VALID,19.5533,VALID,147,VALID,0.689135,
2005-11-08, 01:28:00,VALID,918.357,VALID,0,VALID,100,VALID,0.0169808,VALID,19.5364,VALID,146,VALID,0.700149,
2005-11-08, 01:29:00,VALID,918.346,VALID,0,VALID,100,VALID,0,VALID,19.5305,VALID,139,VALID,0.697917,
2005-11-08, 01:30:00,VALID,918.34,VALID,0,VALID,100,VALID,0,VALID,19.5073,VALID,147,VALID,0.565163,
2005-11-08, 01:31:00,VALID,918.327,VALID,0,VALID,100,VALID,0,VALID,19.5044,VALID,149,VALID,0.812309,
2005-11-08, 01:32:00,VALID,918.318,VALID,0,VALID,100,VALID,0,VALID,19.5078,VALID,154,VALID,0.824128,
2005-11-08, 01:33:00,VALID,918.298,VALID,0,VALID,100,VALID,0,VALID,19.4914,VALID,137,VALID,0.649368,
2005-11-08, 01:34:01,VALID,918.302,VALID,0,VALID,100,VALID,0,VALID,19.4788,VALID,146,VALID,0.559338,
2005-11-08, 01:35:00,VALID,918.294,VALID,0,VALID,100,VALID,-0.0339617,VALID,19.4753,VALID,147,VALID,0.477628,
2005-11-08, 01:36:00,VALID,918.29,VALID,0,VALID,100,VALID,0,VALID,19.4688,VALID,143,VALID,0.551054,
2005-11-08, 01:37:00,VALID,918.272,VALID,0,VALID,100,VALID,0,VALID,19.4753,VALID,130,VALID,0.449405,
2005-11-08, 01:38:01,VALID,918.27,VALID,0,VALID,100,VALID,0,VALID,19.4755,VALID,126,VALID,0.371466,
2005-11-08, 01:39:00,VALID,918.248,VALID,0,VALID,100,VALID,-0.0169808,VALID,19.4691,VALID,134,VALID,0.389509,
2005-11-08, 01:40:01,VALID,918.25,VALID,0,VALID,100,VALID,0,VALID,19.4758,VALID,151,VALID,0.774368,
2005-11-08, 01:41:00,VALID,918.241,VALID,0,VALID,100,VALID,0,VALID,19.4691,VALID,149,VALID,0.604725,
2005-11-08, 01:42:01,VALID,918.245,VALID,0,VALID,100,VALID,-0.0169808,VALID,19.4723,VALID,155,VALID,0.751172,
2005-11-08, 01:43:01,VALID,918.264,VALID,0,VALID,100,VALID,0,VALID,19.4758,VALID,156,VALID,0.588021,
2005-11-08, 01:44:00,VALID,918.255,VALID,0,VALID,100,VALID,-0.0169808,VALID,19.479,VALID,156,VALID,0.598323,
2005-11-08, 01:45:00,VALID,918.26,VALID,0,VALID,100,VALID,-0.0169808,VALID,19.4857,VALID,156,VALID,0.662609,
2005-11-08, 01:46:01,VALID,918.265,VALID,0,VALID,100,VALID,0,VALID,19.4753,VALID,147,VALID,0.583212,
2005-11-08, 01:47:00,VALID,918.259,VALID,0,VALID,100,VALID,0,VALID,19.4914,VALID,165,VALID,0.39169,
2005-11-08, 01:48:00,VALID,918.257,VALID,0,VALID,100,VALID,-0.0509425,VALID,19.4919,VALID,164,VALID,0.5,
2005-11-08, 01:49:01,VALID,918.247,VALID,0,VALID,100,VALID,0,VALID,19.5011,VALID,137,VALID,0.308239,
2005-11-08, 01:50:00,VALID,918.241,VALID,0,VALID,100,VALID,0,VALID,19.5011,VALID,137,VALID,0.507813,
2005-11-08, 01:51:00,VALID,918.247,VALID,0,VALID,100,VALID,0,VALID,19.5011,VALID,135,VALID,0.518342,
2005-11-08, 01:52:00,VALID,918.249,VALID,0,VALID,100,VALID,0,VALID,19.5076,VALID,135,VALID,0.351563,
2005-11-08, 01:53:00,VALID,918.253,VALID,0,VALID,100,VALID,0,VALID,19.5078,VALID,135,VALID,0.285061,
2005-11-08, 01:54:00,VALID,918.258,VALID,0,VALID,100,VALID,0.0169808,VALID,19.5275,VALID,129,VALID,0.507086,
2005-11-08, 01:55:00,VALID,918.266,VALID,0,VALID,100,VALID,0.0169808,VALID,19.527,VALID,135,VALID,0.569336,
2005-11-08, 01:56:00,VALID,918.259,VALID,0,VALID,100,VALID,0,VALID,19.53,VALID,136,VALID,1.04573,
2005-11-08, 01:57:00,VALID,918.255,VALID,0,VALID,100,VALID,0,VALID,19.526,VALID,133,VALID,0.928735,
2005-11-08, 01:58:00,VALID,918.247,VALID,0,VALID,100,VALID,0.0169808,VALID,19.5528,VALID,135,VALID,0.946403,
2005-11-08, 01:59:00,VALID,918.239,VALID,0,VALID,100,VALID,0.0169808,VALID,19.5493,VALID,140,VALID,0.651526,
2005-11-08, 02:00:01,VALID,918.23,VALID,0,VALID,100,VALID,0,VALID,19.569,VALID,131,VALID,0.722743,
2005-11-08, 02:01:00,VALID,918.227,VALID,0,VALID,100,VALID,0.0339617,VALID,19.5789,VALID,128,VALID,0.754092,
2005-11-08, 02:02:00,VALID,918.22,VALID,0,VALID,100,VALID,0.0169808,VALID,19.5787,VALID,123,VALID,0.513765,
2005-11-08, 02:03:00,VALID,918.198,VALID,0,VALID,100,VALID,-0.0169808,VALID,19.5692,VALID,122,VALID,0.587536,
2005-11-08, 02:04:00,VALID,918.191,VALID,0,VALID,100,VALID,-0.0849042,VALID,19.5672,VALID,116,VALID,0.771399,
2005-11-08, 02:05:00,VALID,918.181,VALID,0,VALID,100,VALID,-0.101885,VALID,19.5439,VALID,124,VALID,0.729421,
2005-11-08, 02:06:00,VALID,918.17,VALID,0,VALID,100,VALID,-0.101885,VALID,19.5608,VALID,110,VALID,0.633176,
2005-11-08, 02:07:00,VALID,918.159,VALID,0,VALID,100,VALID,-0.0849042,VALID,19.5478,VALID,105,VALID,0.514695,
2005-11-08, 02:08:00,VALID,918.149,VALID,0,VALID,100,VALID,-0.101885,VALID,19.5347,VALID,107,VALID,0.623365,
2005-11-08, 02:09:00,VALID,918.13,VALID,0,VALID,100,VALID,-0.118866,VALID,19.5255,VALID,125,VALID,0.615412,
2005-11-08, 02:10:00,VALID,918.122,VALID,0,VALID,100,VALID,-0.0849042,VALID,19.5123,VALID,123,VALID,0.59157,
2005-11-08, 02:11:00,VALID,918.098,VALID,0,VALID,100,VALID,-0.118866,VALID,19.5096,VALID,123,VALID,0.596418,
2005-11-08, 02:12:00,VALID,918.088,VALID,0,VALID,100,VALID,-0.101885,VALID,19.4864,VALID,122,VALID,0.724085,
2005-11-08, 02:13:01,VALID,918.068,VALID,0,VALID,100,VALID,-0.118866,VALID,19.4708,VALID,125,VALID,0.542614,
2005-11-08, 02:14:01,VALID,918.054,VALID,0,VALID,100,VALID,-0.101885,VALID,19.4574,VALID,116,VALID,0.313702,
2005-11-08, 02:15:00,VALID,918.041,VALID,0,VALID,100,VALID,-0.101885,VALID,19.4377,VALID,120,VALID,0.538491,
2005-11-08, 02:16:01,VALID,918.016,VALID,0,VALID,100,VALID,-0.118866,VALID,19.4385,VALID,91,VALID,1.0827,
2005-11-08, 02:17:00,VALID,918.001,VALID,0,VALID,100,VALID,-0.101885,VALID,19.4191,VALID,93,VALID,0.995908,
2005-11-08, 02:18:00,VALID,917.977,VALID,0,VALID,100,VALID,-0.0849042,VALID,19.389,VALID,112,VALID,0.725818,
2005-11-08, 02:19:00,VALID,917.953,VALID,0,VALID,100,VALID,0,VALID,19.3754,VALID,101,VALID,0.620908,
2005-11-08, 02:20:00,VALID,917.933,VALID,0,VALID,100,VALID,0.0169808,VALID,19.359,VALID,62,VALID,0.585243,
2005-11-08, 02:21:01,VALID,917.912,VALID,0,VALID,100,VALID,0,VALID,19.3495,VALID,90,VALID,0.506479,
2005-11-08, 02:22:00,VALID,917.888,VALID,0,VALID,100,VALID,0,VALID,19.3428,VALID,76,VALID,0.714026,
2005-11-08, 02:23:00,VALID,917.877,VALID,0,VALID,100,VALID,0,VALID,19.3301,VALID,54,VALID,0.923549,
2005-11-08, 02:24:00,VALID,917.866,VALID,0,VALID,100,VALID,-0.0169808,VALID,19.315,VALID,58,VALID,0.708147,
2005-11-08, 02:25:00,VALID,917.839,VALID,0,VALID,100,VALID,0,VALID,19.2923,VALID,76,VALID,0.574219,
2005-11-08, 02:26:00,VALID,917.838,VALID,0,VALID,100,VALID,0,VALID,19.266,VALID,76,VALID,0.59468,
2005-11-08, 02:27:00,VALID,917.828,VALID,0,VALID,100,VALID,0,VALID,19.2367,VALID,61,VALID,0.571456,
2005-11-08, 02:28:00,VALID,917.808,VALID,0,VALID,100,VALID,0,VALID,19.2168,VALID,54,VALID,0.675509,
2005-11-08, 02:29:00,VALID,917.784,VALID,0,VALID,100,VALID,0.0169808,VALID,19.191,VALID,56,VALID,0.568537,
2005-11-08, 02:30:01,VALID,917.784,VALID,0,VALID,100,VALID,-0.0169808,VALID,19.1949,VALID,56,VALID,0.322311,
2005-11-08, 02:31:01,VALID,917.776,VALID,0,VALID,100,VALID,-0.0169808,VALID,19.188,VALID,56,VALID,0.276708,
2005-11-08, 02:32:01,VALID,917.762,VALID,0,VALID,100,VALID,0.0169808,VALID,19.1848,VALID,56,VALID,0.308681,
2005-11-08, 02:33:00,VALID,917.745,VALID,0,VALID,100,VALID,-0.0169808,VALID,19.1949,VALID,57,VALID,0.523619,
2005-11-08, 02:34:01,VALID,917.74,VALID,0,VALID,100,VALID,0,VALID,19.1781,VALID,59,VALID,0.616832,
2005-11-08, 02:35:00,VALID,917.738,VALID,0,VALID,100,VALID,-0.0169808,VALID,19.1818,VALID,59,VALID,0.917302,
2005-11-08, 02:36:00,VALID,917.732,VALID,0,VALID,100,VALID,-0.0169808,VALID,19.1721,VALID,59,VALID,0.860283,
2005-11-08, 02:37:00,VALID,917.733,VALID,0,VALID,100,VALID,0,VALID,19.1524,VALID,61,VALID,0.789634,
2005-11-08, 02:38:00,VALID,917.725,VALID,0,VALID,100,VALID,0,VALID,19.1532,VALID,63,VALID,0.705798,
2005-11-08, 02:39:01,VALID,917.719,VALID,0,VALID,100,VALID,-0.0339617,VALID,19.1303,VALID,70,VALID,0.456143,
2005-11-08, 02:40:00,VALID,917.707,VALID,0,VALID,100,VALID,0,VALID,19.1144,VALID,84,VALID,0.445313,
2005-11-08, 02:41:00,VALID,917.692,VALID,0,VALID,100,VALID,0,VALID,19.0881,VALID,96,VALID,0.630952,
2005-11-08, 02:42:01,VALID,917.674,VALID,0,VALID,100,VALID,0,VALID,19.0791,VALID,95,VALID,0.867746,
2005-11-08, 02:43:00,VALID,917.668,VALID,0,VALID,100,VALID,-0.0169808,VALID,19.0565,VALID,95,VALID,0.854226,
2005-11-08, 02:44:00,VALID,917.662,VALID,0,VALID,100,VALID,0,VALID,19.0334,VALID,95,VALID,0.848292,
2005-11-08, 02:45:00,VALID,917.633,VALID,0,VALID,100,VALID,0,VALID,19.0237,VALID,94,VALID,0.958519,
2005-11-08, 02:46:01,VALID,917.616,VALID,0,VALID,100,VALID,0,VALID,19.0336,VALID,94,VALID,0.710211,
2005-11-08, 02:47:00,VALID,917.596,VALID,0,VALID,100,VALID,0,VALID,19.0366,VALID,95,VALID,0.878092,
2005-11-08, 02:48:00,VALID,917.594,VALID,0,VALID,100,VALID,0,VALID,19.0235,VALID,95,VALID,0.888867,
2005-11-08, 02:49:00,VALID,917.57,VALID,0,VALID,100,VALID,-0.0339617,VALID,19.0373,VALID,95,VALID,0.638494,
2005-11-08, 02:50:00,VALID,917.564,VALID,0,VALID,100,VALID,-0.0509425,VALID,19.0108,VALID,94,VALID,0.719866,
2005-11-08, 02:51:00,VALID,917.554,VALID,0,VALID,100,VALID,-0.0169808,VALID,19.011,VALID,79,VALID,0.790587,
2005-11-08, 02:52:01,VALID,917.538,VALID,0,VALID,100,VALID,-0.0509425,VALID,19.0277,VALID,77,VALID,0.94093,
2005-11-08, 02:53:01,VALID,917.551,VALID,0,VALID,100,VALID,0,VALID,19.047,VALID,74,VALID,1.06268,
2005-11-08, 02:54:01,VALID,917.556,VALID,0,VALID,100,VALID,0,VALID,19.0602,VALID,66,VALID,1.04315,
2005-11-08, 02:55:01,VALID,917.569,VALID,0,VALID,100,VALID,-0.0509425,VALID,19.0309,VALID,46,VALID,1.09055,
2005-11-08, 02:56:00,VALID,917.584,VALID,0,VALID,100,VALID,0,VALID,19.0369,VALID,47,VALID,1.12555,
2005-11-08, 02:57:01,VALID,917.597,VALID,0,VALID,100,VALID,-0.0169808,VALID,19.0366,VALID,56,VALID,1.13574,
2005-11-08, 02:58:00,VALID,917.621,VALID,0,VALID,100,VALID,-0.0169808,VALID,19.0269,VALID,67,VALID,0.912246,
2005-11-08, 02:59:00,VALID,917.648,VALID,0,VALID,100,VALID,0,VALID,19.008,VALID,76,VALID,0.835751,
2005-11-08, 03:00:01,VALID,917.668,VALID,0,VALID,100,VALID,0,VALID,18.9953,VALID,91,VALID,0.847656,
2005-11-08, 03:01:00,VALID,917.696,VALID,0,VALID,100,VALID,0,VALID,18.9591,VALID,115,VALID,0.686738,
2005-11-08, 03:02:00,VALID,917.729,VALID,0,VALID,100,VALID,0,VALID,18.9459,VALID,124,VALID,0.89707,
2005-11-08, 03:03:00,VALID,917.736,VALID,0,VALID,100,VALID,0,VALID,18.9623,VALID,125,VALID,1.2048,
2005-11-08, 03:04:00,VALID,917.76,VALID,0,VALID,100,VALID,-0.0849042,VALID,18.979,VALID,126,VALID,1.10863,
2005-11-08, 03:05:01,VALID,917.762,VALID,0,VALID,100,VALID,0,VALID,18.979,VALID,133,VALID,0.524858,
2005-11-08, 03:06:00,VALID,917.771,VALID,0,VALID,100,VALID,0,VALID,18.9889,VALID,133,VALID,0.82984,
2005-11-08, 03:07:00,VALID,917.771,VALID,0,VALID,100,VALID,-0.0339617,VALID,18.9819,VALID,163,VALID,0.419398,
2005-11-08, 03:08:01,VALID,917.778,VALID,0,VALID,100,VALID,-0.0169808,VALID,19.0009,VALID,152,VALID,0.692835,
2005-11-08, 03:09:01,VALID,917.792,VALID,0,VALID,100,VALID,0,VALID,19.0138,VALID,139,VALID,0.65904,
2005-11-08, 03:10:00,VALID,917.805,VALID,0,VALID,100,VALID,0,VALID,19.0304,VALID,138,VALID,0.497638,
2005-11-08, 03:11:01,VALID,917.808,VALID,0,VALID,100,VALID,-0.0169808,VALID,19.057,VALID,140,VALID,0.579033,
2005-11-08, 03:12:01,VALID,917.809,VALID,0,VALID,100,VALID,-0.0169808,VALID,19.0565,VALID,142,VALID,0.479469,
2005-11-08, 03:13:00,VALID,917.801,VALID,0,VALID,100,VALID,-0.0169808,VALID,19.0699,VALID,143,VALID,0.354539,
2005-11-08, 03:14:00,VALID,917.799,VALID,0,VALID,100,VALID,-0.0169808,VALID,19.0761,VALID,143,VALID,0.328125,
2005-11-08, 03:15:01,VALID,917.788,VALID,0,VALID,100,VALID,-0.0339617,VALID,19.0927,VALID,130,VALID,0.310785,
2005-11-08, 03:16:01,VALID,917.793,VALID,0,VALID,100,VALID,0,VALID,19.1015,VALID,110,VALID,0.371595,
2005-11-08, 03:17:01,VALID,917.788,VALID,0,VALID,100,VALID,0.0169808,VALID,19.1142,VALID,110,VALID,0.218568,
2005-11-08, 03:18:01,VALID,917.797,VALID,0,VALID,100,VALID,-0.0509425,VALID,19.1435,VALID,110,VALID,0.114139,
2005-11-08, 03:19:01,VALID,917.799,VALID,0,VALID,100,VALID,0,VALID,19.1564,VALID,116,VALID,0.390803,
2005-11-08, 03:20:01,VALID,917.812,VALID,0,VALID,100,VALID,-0.0169808,VALID,19.1788,VALID,128,VALID,0.407465,
2005-11-08, 03:21:00,VALID,917.828,VALID,0,VALID,100,VALID,-0.0169808,VALID,19.1947,VALID,130,VALID,0.515443,
2005-11-08, 03:22:00,VALID,917.827,VALID,0,VALID,100,VALID,-0.0339617,VALID,19.2116,VALID,131,VALID,0.792361,
2005-11-08, 03:23:01,VALID,917.852,VALID,0,VALID,100,VALID,-0.0169808,VALID,19.2277,VALID,131,VALID,0.774528,
2005-11-08, 03:24:01,VALID,917.857,VALID,0,VALID,100,VALID,-0.0169808,VALID,19.2441,VALID,143,VALID,0.898074,
2005-11-08, 03:25:00,VALID,917.883,VALID,0,VALID,100,VALID,-0.0169808,VALID,19.2568,VALID,147,VALID,0.795603,
2005-11-08, 03:26:00,VALID,917.884,VALID,0,VALID,100,VALID,0,VALID,19.2538,VALID,135,VALID,1.40701,
2005-11-08, 03:27:01,VALID,917.9,VALID,0,VALID,100,VALID,0,VALID,19.26,VALID,140,VALID,1.12671,
2005-11-08, 03:28:01,VALID,917.879,VALID,0,VALID,100,VALID,-0.0169808,VALID,19.2667,VALID,135,VALID,1.11174,
2005-11-08, 03:29:01,VALID,917.893,VALID,0,VALID,100,VALID,-0.0169808,VALID,19.2533,VALID,136,VALID,1.16597,
2005-11-08, 03:30:01,VALID,917.885,VALID,0,VALID,100,VALID,-0.0509425,VALID,19.2536,VALID,138,VALID,1.07676,
2005-11-08, 03:31:00,VALID,917.869,VALID,0,VALID,100,VALID,-0.0169808,VALID,19.2372,VALID,138,VALID,1.18902,
2005-11-08, 03:32:00,VALID,917.872,VALID,0,VALID,100,VALID,0,VALID,19.2374,VALID,139,VALID,0.869665,
2005-11-08, 03:33:01,VALID,917.867,VALID,0,VALID,100,VALID,-0.0339617,VALID,19.2439,VALID,139,VALID,1.0645,
2005-11-08, 03:34:01,VALID,917.873,VALID,0,VALID,100,VALID,0,VALID,19.2208,VALID,150,VALID,0.875,
2005-11-08, 03:35:00,VALID,917.871,VALID,0,VALID,100,VALID,0.0169808,VALID,19.2307,VALID,144,VALID,0.847147,
2005-11-08, 03:36:01,VALID,917.888,VALID,0,VALID,100,VALID,0,VALID,19.2312,VALID,136,VALID,1.20676,
2005-11-08, 03:37:01,VALID,917.881,VALID,0,VALID,100,VALID,-0.0169808,VALID,19.2016,VALID,135,VALID,1.35632,
2005-11-08, 03:38:01,VALID,917.878,VALID,0,VALID,100,VALID,-0.0509425,VALID,19.2183,VALID,130,VALID,1.06432,
2005-11-08, 03:39:00,VALID,917.872,VALID,0,VALID,100,VALID,-0.0169808,VALID,19.2081,VALID,129,VALID,1.16183,
2005-11-08, 03:40:01,VALID,917.857,VALID,0,VALID,100,VALID,-0.0509425,VALID,19.215,VALID,130,VALID,1.03022,
2005-11-08, 03:41:01,VALID,917.85,VALID,0,VALID,100,VALID,0,VALID,19.2051,VALID,127,VALID,0.780878,
2005-11-08, 03:42:01,VALID,917.844,VALID,0,VALID,100,VALID,-0.0509425,VALID,19.2051,VALID,127,VALID,0.724254,
2005-11-08, 03:43:01,VALID,917.84,VALID,0,VALID,100,VALID,-0.0339617,VALID,19.2014,VALID,130,VALID,0.762277,
2005-11-08, 03:44:00,VALID,917.85,VALID,0,VALID,100,VALID,-0.0339617,VALID,19.2183,VALID,123,VALID,0.822461,
2005-11-08, 03:45:01,VALID,917.857,VALID,0,VALID,99.9964,VALID,-0.0679233,VALID,19.2011,VALID,118,VALID,0.352778,